Location: ????????
(55.6189°N, 38.3031°E)
Time: 16:23:44
(UTC+00:00)

Cosmos 1821 Rocket - Pass Details

Date: 15 November 2019
Orbit: 946 x 1004 km, 82.9° (Epoch: 06 December)

Event Time Altitude Azimuth Distance (km) Brightness Sun altitude
Exits shadow 01:03:19 62° 48° (NE) 1,070 4.3 -33.0°
Drops below altitude 10° 01:08:37 10° 14° (NNE) 2,710 6.6 -32.2°
Sets 01:11:09 0° 13° (NNE) 3,669 7.3 -31.9°
